User: anonymous   Login
Location: Caltech
(34.1382°N, 118.1253°W)
Time: 03:42:28
(UTC-07:00)
Language:

MaSat-1 - Orbit

View from above orbital plane
View from above orbital plane
View from above satellite
View from above satellite

Ground track
Ground track

The orbit data is extracted from the following two-line orbital elements,

1 38081U 12006E   14304.24074128  .00249130  18445-4  17647-2 0  5492
2 38081 069.4468 345.4515 0240219 155.7126 274.6164 15.43995509144167
Epoch (UTC): 31 October 2014 05:46:40
Eccentricity: 0.0240219
inclination: 69.4468°
perigee height: 270 km
apogee height: 598 km
right ascension of ascending node: 345.4515°
argument of perigee: 155.7126°
revolutions per day: 15.43995509
mean anomaly at epoch: 274.6164°
orbit number at epoch: 14416

The dashed part of the orbit path shows where the satellite is in the earth's shadow,  

DLR